| time (UTC) | temp F | wind direction | speed MPH | gust MPH | rain 1hr in | rain 24hr in | rain mn in | humidity % | barometer mb |
| 20260510134515 | 52 | 219 | 3.0 | 8.0 | 0.00 | 0.04 | 0.00 | 85 | 1010.2 |
| 20260510133009 | 51 | 184 | 3.0 | 10.0 | 0.00 | 0.04 | 0.00 | 88 | 1010.1 |
| 20260510131504 | 49 | 245 | 3.0 | 6.0 | 0.00 | 0.04 | 0.00 | 93 | 1010.1 |
| 20260510130002 | 48 | 120 | 4.0 | 11.0 | 0.00 | 0.04 | 0.00 | 95 | 1009.8 |
| 20260510124558 | 47 | 180 | 3.0 | 9.0 | 0.00 | 0.04 | 0.00 | 96 | 1010.3 |
| 20260510123028 | 46 | 154 | 2.0 | 8.0 | 0.00 | 0.04 | 0.00 | 96 | 1010.6 |
| 20260510121523 | 46 | 153 | 4.0 | 8.0 | 0.00 | 0.04 | 0.00 | 96 | 1010.2 |
| 20260510120053 | 46 | 159 | 2.0 | 10.0 | 0.00 | 0.04 | 0.00 | 96 | 1010.3 |
| 20260510114550 | 46 | 328 | 1.0 | 7.0 | 0.00 | 0.04 | 0.00 | 96 | 1010.1 |
| 20260510113047 | 45 | 120 | 4.0 | 10.0 | 0.00 | 0.04 | 0.00 | 96 | 1009.7 |
| 20260510111554 | 45 | 183 | 4.0 | 10.0 | 0.00 | 0.04 | 0.00 | 96 | 1009.9 |
| 20260510110043 | 45 | 155 | 3.0 | 10.0 | 0.00 | 0.04 | 0.00 | 96 | 1009.6 |
| 20260510104548 | 45 | 160 | 5.0 | 11.0 | 0.00 | 0.04 | 0.00 | 96 | 1009.0 |
| 20260510103010 | 45 | 109 | 3.0 | 10.0 | 0.00 | 0.04 | 0.00 | 96 | 1009.2 |
| 20260510101509 | 45 | 142 | 3.0 | 10.0 | 0.00 | 0.04 | 0.00 | 96 | 1009.2 |
| 20260510100005 | 45 | 123 | 4.0 | 11.0 | 0.00 | 0.04 | 0.00 | 96 | 1008.8 |
| 20260510094506 | 45 | 148 | 4.0 | 12.0 | 0.00 | 0.04 | 0.00 | 96 | 1008.6 |
| 20260510093004 | 45 | 168 | 5.0 | 8.0 | 0.00 | 0.04 | 0.00 | 96 | 1008.6 |
| 20260510091503 | 45 | 124 | 2.0 | 8.0 | 0.00 | 0.04 | 0.00 | 96 | 1008.3 |
| 20260510090100 | 45 | 182 | 3.0 | 10.0 | 0.00 | 0.04 | 0.00 | 96 | 1008.4 |
| 20260510084602 | 44 | 126 | 5.0 | 13.0 | 0.00 | 0.04 | 0.00 | 96 | 1008.2 |
| 20260510083056 | 44 | 126 | 5.0 | 14.0 | 0.00 | 0.04 | 0.00 | 96 | 1008.7 |
| 20260510081623 | 44 | 165 | 5.0 | 10.0 | 0.00 | 0.04 | 0.00 | 96 | 1008.8 |
| 20260510080027 | 44 | 148 | 5.0 | 12.0 | 0.00 | 0.04 | 0.00 | 96 | 1008.9 |
| 20260510074523 | 44 | 148 | 5.0 | 12.0 | 0.00 | 0.04 | 0.00 | 96 | 1008.7 |
| 20260510073019 | 44 | 163 | 4.0 | 13.0 | 0.00 | 0.04 | 0.00 | 96 | 1008.6 |
| 20260510071518 | 44 | 142 | 6.0 | 13.0 | 0.00 | 0.04 | 0.00 | 96 | 1008.6 |
| 20260510070019 | 44 | 128 | 6.0 | 9.0 | 0.00 | 0.04 | 0.04 | 96 | 1009.0 |
| 20260510064512 | 44 | 163 | 6.0 | 14.0 | 0.00 | 0.04 | 0.04 | 96 | 1008.8 |
| 20260510063009 | 44 | 188 | 4.0 | 12.0 | 0.00 | 0.04 | 0.04 | 96 | 1008.9 |
| 20260510061512 | 44 | 162 | 9.0 | 15.0 | 0.00 | 0.04 | 0.04 | 96 | 1009.0 |
| 20260510060007 | 44 | 136 | 5.0 | 14.0 | 0.00 | 0.04 | 0.04 | 96 | 1009.2 |
| 20260510054514 | 44 | 156 | 7.0 | 13.0 | 0.00 | 0.04 | 0.04 | 96 | 1009.0 |
| 20260510053106 | 43 | 152 | 6.0 | 14.0 | 0.00 | 0.04 | 0.04 | 96 | 1009.1 |
| 20260510051602 | 43 | 157 | 4.0 | 15.0 | 0.00 | 0.04 | 0.04 | 96 | 1008.9 |
| 20260510050003 | 43 | 140 | 6.0 | 17.0 | 0.00 | 0.04 | 0.04 | 96 | 1008.9 |
| 20260510044502 | 43 | 138 | 6.0 | 15.0 | 0.00 | 0.04 | 0.04 | 96 | 1009.2 |
| 20260510043037 | 43 | 150 | 6.0 | 18.0 | 0.00 | 0.04 | 0.04 | 96 | 1008.9 |
| 20260510041533 | 43 | 157 | 6.0 | 12.0 | 0.00 | 0.04 | 0.04 | 96 | 1008.9 |
| 20260510040038 | 43 | 140 | 6.0 | 13.0 | 0.00 | 0.04 | 0.04 | 96 | 1009.2 |
| 20260510034526 | 43 | 145 | 6.0 | 12.0 | 0.00 | 0.04 | 0.04 | 96 | 1009.1 |
| 20260510033039 | 43 | 137 | 4.0 | 14.0 | 0.00 | 0.04 | 0.04 | 96 | 1009.1 |
| 20260510031525 | 42 | 148 | 5.0 | 14.0 | 0.00 | 0.04 | 0.04 | 95 | 1009.2 |
| 20260510030127 | 42 | 196 | 6.0 | 15.0 | 0.00 | 0.04 | 0.04 | 96 | 1009.3 |
| 20260510024553 | 42 | 169 | 7.0 | 15.0 | 0.00 | 0.04 | 0.04 | 95 | 1009.3 |
| 20260510023053 | 42 | 114 | 4.0 | 17.0 | 0.00 | 0.04 | 0.04 | 95 | 1009.3 |
| 20260510021537 | 42 | 148 | 9.0 | 17.0 | 0.00 | 0.04 | 0.04 | 95 | 1009.4 |
| 20260510020019 | 42 | 138 | 7.0 | 14.0 | 0.00 | 0.04 | 0.04 | 95 | 1009.8 |
| 20260510014502 | 42 | 117 | 6.0 | 11.0 | 0.00 | 0.04 | 0.04 | 94 | 1009.8 |
| 20260510013108 | 42 | 113 | 4.0 | 11.0 | 0.00 | 0.04 | 0.04 | 94 | 1009.7 |
| 20260510011538 | 42 | 124 | 6.0 | 12.0 | 0.00 | 0.04 | 0.04 | 94 | 1010.2 |
| 20260510010037 | 42 | 129 | 7.0 | 14.0 | 0.00 | 0.04 | 0.04 | 94 | 1010.1 |
| 20260510004540 | 42 | 136 | 5.0 | 13.0 | 0.00 | 0.04 | 0.04 | 94 | 1010.1 |
| 20260510003043 | 42 | 136 | 7.0 | 11.0 | 0.00 | 0.04 | 0.04 | 94 | 1009.8 |
| 20260510000055 | 42 | 157 | 7.0 | 11.0 | 0.00 | 0.04 | 0.04 | 94 | 1009.3 |
| 20260509234559 | 42 | 146 | 7.0 | 17.0 | 0.00 | 0.04 | 0.04 | 94 | 1009.2 |
| 20260509233056 | 42 | 138 | 4.0 | 11.0 | 0.00 | 0.04 | 0.04 | 93 | 1009.4 |
| 20260509231549 | 42 | 144 | 4.0 | 12.0 | 0.00 | 0.04 | 0.04 | 93 | 1009.5 |
| 20260509230034 | 43 | 162 | 6.0 | 12.0 | 0.00 | 0.04 | 0.04 | 93 | 1009.4 |
| 20260509224536 | 43 | 150 | 6.0 | 13.0 | 0.00 | 0.04 | 0.04 | 93 | 1009.4 |
| 20260509223033 | 43 | 147 | 5.0 | 11.0 | 0.00 | 0.04 | 0.04 | 93 | 1009.4 |
| 20260509221537 | 42 | 164 | 6.0 | 13.0 | 0.00 | 0.04 | 0.04 | 93 | 1009.6 |
| 20260509220022 | 43 | 149 | 6.0 | 11.0 | 0.00 | 0.04 | 0.04 | 93 | 1009.7 |
| 20260509214513 | 42 | 156 | 6.0 | 16.0 | 0.00 | 0.04 | 0.04 | 93 | 1009.7 |
| 20260509213114 | 43 | 155 | 5.0 | 11.0 | 0.00 | 0.04 | 0.04 | 93 | 1009.7 |
| 20260509211615 | 42 | 109 | 6.0 | 15.0 | 0.00 | 0.04 | 0.04 | 93 | 1009.7 |
| 20260509210036 | 42 | 130 | 9.0 | 14.0 | 0.00 | 0.04 | 0.04 | 92 | 1009.7 |
| 20260509204533 | 42 | 119 | 4.0 | 11.0 | 0.00 | 0.04 | 0.04 | 92 | 1010.0 |
| 20260509203044 | 42 | 165 | 6.0 | 14.0 | 0.00 | 0.04 | 0.04 | 91 | 1010.1 |
| 20260509201602 | 42 | 118 | 7.0 | 10.0 | 0.00 | 0.04 | 0.04 | 91 | 1010.2 |
| 20260509200030 | 42 | 146 | 7.0 | 15.0 | 0.00 | 0.04 | 0.04 | 91 | 1010.3 |
| 20260509194534 | 43 | 180 | 2.0 | 10.0 | 0.00 | 0.04 | 0.04 | 91 | 1010.5 |
| 20260509193006 | 43 | 134 | 3.0 | 9.0 | 0.00 | 0.04 | 0.04 | 90 | 1010.4 |
| 20260509191620 | 43 | 140 | 4.0 | 10.0 | 0.00 | 0.04 | 0.04 | 90 | 1010.4 |
| 20260509190049 | 43 | 105 | 3.0 | 10.0 | 0.00 | 0.04 | 0.04 | 91 | 1010.4 |
| 20260509184559 | 43 | 118 | 2.0 | 8.0 | 0.00 | 0.04 | 0.04 | 91 | 1010.7 |
| 20260509183043 | 42 | 130 | 4.0 | 12.0 | 0.01 | 0.04 | 0.04 | 90 | 1010.9 |
| 20260509181546 | 42 | 105 | 5.0 | 10.0 | 0.02 | 0.04 | 0.04 | 90 | 1010.9 |
| 20260509180039 | 42 | 136 | 3.0 | 10.0 | 0.02 | 0.04 | 0.04 | 90 | 1011.1 |
| 20260509174539 | 42 | 130 | 5.0 | 11.0 | 0.03 | 0.04 | 0.04 | 88 | 1011.3 |
| 20260509173108 | 43 | 139 | 6.0 | 12.0 | 0.03 | 0.03 | 0.03 | 89 | 1011.4 |
| 20260509171539 | 42 | 134 | 7.0 | 15.0 | 0.02 | 0.02 | 0.02 | 89 | 1011.5 |
| 20260509170014 | 43 | 155 | 6.0 | 16.0 | 0.02 | 0.02 | 0.02 | 86 | 1011.6 |
| 20260509164535 | 43 | 164 | 3.0 | 8.0 | 0.01 | 0.01 | 0.01 | 85 | 1011.7 |
| 20260509163027 | 44 | 159 | 8.0 | 16.0 | 0.00 | 0.00 | 0.00 | 80 | 1011.8 |
| 20260509161530 | 44 | 190 | 6.0 | 18.0 | 0.00 | 0.00 | 0.00 | 78 | 1011.8 |
| 20260509160024 | 45 | 143 | 4.0 | 17.0 | 0.00 | 0.00 | 0.00 | 74 | 1011.9 |
| 20260509154522 | 47 | 129 | 11.0 | 19.0 | 0.00 | 0.00 | 0.00 | 66 | 1012.0 |
| 20260509153052 | 48 | 165 | 7.0 | 16.0 | 0.00 | 0.00 | 0.00 | 60 | 1012.3 |
| 20260509151550 | 48 | 135 | 4.0 | 10.0 | 0.00 | 0.00 | 0.00 | 58 | 1012.3 |
| 20260509150035 | 48 | 159 | 5.0 | 14.0 | 0.00 | 0.00 | 0.00 | 55 | 1012.4 |
| 20260509144544 | 48 | 151 | 4.0 | 11.0 | 0.00 | 0.00 | 0.00 | 54 | 1012.2 |
| 20260509143014 | 48 | 148 | 6.0 | 13.0 | 0.00 | 0.00 | 0.00 | 52 | 1012.2 |
| 20260509141616 | 48 | 148 | 4.0 | 11.0 | 0.00 | 0.00 | 0.00 | 52 | 1012.3 |
| 20260509140046 | 49 | 157 | 3.0 | 12.0 | 0.00 | 0.00 | 0.00 | 49 | 1012.2 |